Location: Foulognes
(49.1413°N, 0.8183°W)
Time: 08:12:10
(UTC+00:00)

Cosmos 1908 - Pass Details

Date: 21 October 2019
Orbit: 511 x 532 km, 82.5° (Epoch: 17 November)

Event Time Altitude Azimuth Distance (km) Brightness Sun altitude
Rises 18:31:48 0° 199° (SSW) 2,661 7.0 -15.3°
Reaches altitude 10° 18:33:58 10° 203° (SSW) 1,774 6.2 -15.7°
Maximum altitude 18:37:48 56° 282° (WNW) 634 3.9 -16.3°
Drops below altitude 10° 18:41:39 10° 2° (N) 1,778 5.9 -16.9°
Sets 18:43:50 0° 7° (N) 2,668 6.8 -17.3°
